Regional Weather Roundup
Issued by NWS

Home | Current Version | Previous Version | Text Only | Print | Product List | Glossary Off
Versions: 1 2 3 4 5 6 7 8 9 10 11 12 13 14 15 16 17 18 19 20 21 22 23 24 25 26 27 28 29 30 31 32 33 34 35 36 37 38 39 40 41 42 43 44 45 46 47 48 49 50

338
ASUS45 KBOU 200810
RWRCO

WEATHER ROUNDUP FOR COLORADO
NATIONAL WEATHER SERVICE DENVER/BOULDER CO
100 AM MST MON NOV 20 2017

NOTE: "FAIR" INDICATES FEW OR NO CLOUDS BELOW 12000 FEET WITH NO
SIGNIFICANT WEATHER AND/OR OBSTRUCTIONS TO VISIBILITY.

COZ001>005-013-030-031-200900-
...NORTHWEST COLORADO...

CITY           SKY/WX    TMP DP  RH WIND       PRES   REMARKS
CRAIG          FAIR      14   9  80 SW5       30.15R WCI   6
HAYDEN         FAIR      23  15  71 E12       30.14F WCI  12
MEEKER         FAIR      20  13  74 CALM      30.15F
RABBIT EARS PA FAIR      19   9  63 W9G17     30.13S WCI   9
STEAMBOAT SPGS FAIR      17  14  87 CALM      30.13F
WALDEN         FAIR      30   3  31 S14       30.08F WCI  20
$$

COZ006>008-011-200900-
...WEST CENTRAL VALLEYS...

CITY           SKY/WX    TMP DP  RH WIND       PRES   REMARKS
GRAND JUNCTION FAIR      24  13  62 SE6       30.20F WCI  17
MONTROSE       FAIR      20  16  84 S7        30.23F WCI  11
EAGLE          FAIR      19  15  84 E6        30.23S WCI  11
RIFLE          FAIR      21  17  84 CALM      30.22F
DELTA          FAIR      24  15  68 CALM      30.22F
NUCLA          FAIR      27   5  39 E5        30.24S WCI  21
$$

COZ017>023-064>068-200900-
...SOUTHWEST COLORADO...

CITY           SKY/WX    TMP DP  RH WIND       PRES   REMARKS
DURANGO        FAIR      17  11  77 E3        30.20S
CORTEZ         FAIR      13   8  81 CALM      30.22R
PAGOSA SPRINGS FAIR      23  13  68 CALM      30.20F
TELLURIDE      FAIR      28   0  30 SE8       30.25F WCI  19
WOLF CREEK PAS FAIR      27 -17  14 SW3       30.32S
$$

COZ009-010-012-014-032>034-037-058>063-200900-
...CENTRAL COLORADO...

CITY           SKY/WX    TMP DP  RH WIND       PRES   REMARKS
ASPEN          FAIR      19  11  70 CALM      30.18S
BUENA VISTA    FAIR      26   8  46 SE7       30.12F WCI  18
COPPER MTN     FAIR      27 -17  14 MISG      30.21F
BERTHOUD PASS  FAIR      19   9  63 NW41G54   30.13R WCI  -2
COTTONWOOD PAS FAIR      37 -26   6 W9        30.14F
GUNNISON       FAIR      11   8  88 N6        30.28S WCI   1
KREMMLING      FAIR      23  14  68 CALM      30.18S
LEADVILLE      FAIR      22  -8  26 VRB3      30.17F
MONARCH PASS   FAIR      19  -4  35 W46       30.27F WCI  -3
SALIDA         FAIR      38  -1  19 N8        30.19F
SUNLIGHT       FAIR      23  -6  28 SW16G24   30.24F WCI  10
WILKERSON PASS FAIR      23  -9  23 W15G26    30.14F WCI  10
$$

COZ069>075-200900-
...SAN LUIS VALLEY/SANGRE DE CRISTO MOUNTAINS...

CITY           SKY/WX    TMP DP  RH WIND       PRES   REMARKS
ALAMOSA        FAIR      11   6  81 W7        30.18F WCI   0
DEL NORTE      FAIR      24   6  47 W13       30.20S WCI  12
LA VETA PASS   FAIR      28   3  34 SW30G43     N/A  WCI  13
SAGUACHE       FAIR      23   5  46 NW13      30.19S WCI  11
$$

COZ035-036-038>040-200900-
...NORTHERN COLORADO FRONT RANGE...

CITY           SKY/WX    TMP DP  RH WIND       PRES   REMARKS
DENVER INTL AP FAIR      39   7  26 SW14      29.90F
DMNS CITY PARK   N/A     41   2  20 SE9G16    29.89F
AURORA         PTCLDY    37   6  27 S13       29.91F
FRONT RANGE AP FAIR      43   9  25 S13       29.92F
ERIE MUNI ARPT FAIR      38   1  20 CALM      29.93F
BOULDER MUN AP FAIR      41   1  19 E3        29.86F
CENTENNIAL     FAIR      44   1  16 SW12      29.92F
BROOMFIELD     FAIR      43   1  17 SE6       29.90F
FORT COLLINS   FAIR      29  17  61 N5        29.88F WCI  24
LONGMONT       FAIR      47   0  14 CALM      29.88F
$$

COZ041-046-047-076>085-087-088-200900-
...PIKES PEAK/PALMER DIVIDE AND SOUTHERN FOOTHILLS...

CITY           SKY/WX    TMP DP  RH WIND       PRES   REMARKS
COLO. SPRINGS  FAIR      47  -6  11 NW10G18   29.97F
A. F. ACADEMY  FAIR      46 -12   8 NE14G23   29.95F
SCHRIEVER AFB  FAIR      38  -3  18 NE5       29.97F
CHEYENNE MTN   FAIR      45  -3  13 SW5       29.93F
ELLICOTT       NOT AVBL
FALCON         FAIR      37  -6  16 W8        29.99F
FORT CARSON    FAIR      41   8  25 SW6       29.94F
LIMON          FAIR      22  13  68 N6        29.94F WCI  14
MONUMENT HILL  FAIR      32   5  32 SW10      29.99F WCI  24
CANON CITY     FAIR      45   3  18 W29G35    29.95F
WALSENBURG     FAIR      45   1  16 W20G25    30.00F
TRINIDAD       FAIR      32  14  47 W13       29.99F WCI  22
$$

COZ042>045-048>051-090-091-200900-
...NORTHEAST COLORADO...

CITY           SKY/WX    TMP DP  RH WIND       PRES   REMARKS
GREELEY ARPT   FAIR      21  17  84 NE5       29.89F WCI  15
AKRON          FAIR      41  10  28 W16       29.88F
BURLINGTON     FAIR      27  14  58 W13       29.89F WCI  16
WRAY           NOT AVBL
YUMA           FAIR      30  16  55 W8        29.87F WCI  23
STERLING       FAIR      21  19  93 S5        29.86F WCI  15
HOLYOKE        FAIR      34  19  55 W10       29.85F WCI  26
FORT MORGAN    FAIR      30  13  48 W6        29.89F WCI  24
$$

COZ086-089-092>099-200900-
...SOUTHEAST COLORADO...

CITY           SKY/WX    TMP DP  RH WIND       PRES   REMARKS
PUEBLO         FAIR      42   7  23 N10       29.92F
LA JUNTA       FAIR      32  17  54 W10       29.93F WCI  24
LAMAR          FAIR      26  18  71 SW9       29.91F WCI  17
SPRINGFIELD      N/A     34  15  46 W14       29.93S WCI  25
$$




USA.gov is the U.S. government's official web portal to all federal, state and local government web resources and services.